Location: Bratislava
(48.1500°N, 17.1170°E)
Time: 09:28:34
(UTC+02:00)

Amateur Radio Satellites - All Passes

Search period start: 26 March 2017 08:58
Search period end: 27 March 2017 08:58
Location: Bratislava, 48.1500°N, 17.1170°E

Satellite Date Start Highest point End Downlink Frequencies (MHz)
Time Altitude Azimuth
TIGRISAT 26 Mar 09:03:53 09:07:44 26° 64° (ENE) 09:11:33 435.000
UNISAT 6 26 Mar 09:13:26 09:17:36 33° 67° (ENE) 09:21:46 437.425
UWE-3 26 Mar 09:14:43 09:19:04 63° 101° (E) 09:23:16 435.000/436.395/437.385
NO-84 26 Mar 09:20:00 09:22:40 35° 339° (NNW) 09:25:25 435.350 FM
YUBILEINY 26 Mar 09:25:06 09:33:25 47° 290° (WNW) 09:41:48 435.215
DELFI C3 26 Mar 09:44:20 09:47:15 19° 92° (E) 09:50:10 145.870
CUBEBUG 2 26 Mar 09:47:04 09:51:16 41° 291° (WNW) 09:55:20 437.445
Oscar 11 26 Mar 09:50:59 09:55:18 70° 102° (ESE) 09:59:35 .
AAUSAT CUBESAT 2 26 Mar 09:53:03 09:57:01 44° 289° (WNW) 10:00:57 437.432
PCSat 26 Mar 09:55:44 10:00:48 42° 115° (ESE) 10:05:54 145.827
ZACube-1 26 Mar 09:57:13 10:01:30 80° 285° (WNW) 10:05:41 437.345
SEEDS 26 Mar 10:07:19 10:10:16 19° 297° (WNW) 10:13:13 437.485
CUTE 1.7 + AOD 2 26 Mar 10:13:49 10:15:35 12° 302° (WNW) 10:17:21 437.475
PRISM 26 Mar 10:14:16 10:17:56 32° 263° (W) 10:21:38 437.425
POLYITAN 1 26 Mar 10:21:42 10:24:19 16° 60° (ENE) 10:26:56 437.675
FO-29 26 Mar 10:25:07 10:32:58 88° 74° (ENE) 10:40:17 435.910
QB50P2 26 Mar 10:25:53 10:28:50 18° 61° (ENE) 10:31:48 145.880/145.840
AO-73 26 Mar 10:26:14 10:30:18 44° 290° (WNW) 10:34:15 145.935
DUCHIFAT 1 26 Mar 10:38:59 10:42:01 19° 62° (ENE) 10:45:03 145.980
TIGRISAT 26 Mar 10:39:44 10:44:12 43° 262° (W) 10:48:41 435.000
HO-68 26 Mar 10:44:47 10:50:07 23° 309° (NW) 10:55:27 435.675
UNISAT 6 26 Mar 10:50:03 10:54:17 33° 264° (W) 10:58:30 437.425
UWE-3 26 Mar 10:52:18 10:55:03 17° 300° (WNW) 10:57:43 435.000/436.395/437.385
NO-84 26 Mar 10:58:28 11:00:48 21° 1° (N) 11:03:14 435.350 FM
BUGSAT 1 26 Mar 10:59:18 11:00:59 12° 57° (ENE) 11:02:39 437.445
DELFI C3 26 Mar 11:18:28 11:22:13 41° 290° (WNW) 11:25:59 145.870
NANOSAT C BR1 26 Mar 11:23:18 11:27:28 54° 71° (ENE) 11:31:38 145.865
AIST 2D 26 Mar 11:25:29 11:29:01 78° 257° (WSW) 11:32:34 435.315
EO-79 26 Mar 11:27:24 11:31:38 64° 73° (ENE) 11:35:54 145.935-145.965
Oscar 11 26 Mar 11:28:27 11:30:56 15° 300° (WNW) 11:33:24 .
YUBILEINY 26 Mar 11:30:09 11:33:03 12° 316° (NW) 11:35:58 435.215
LO-87 26 Mar 11:30:23 11:33:46 34° 97° (E) 11:37:07 145.935 - 145.965
ZACube-1 26 Mar 11:36:06 11:37:01 11° 304° (NW) 11:37:55 437.345
PCSat 26 Mar 11:39:10 11:44:15 40° 315° (NW) 11:49:22 145.827
Oscar 19 26 Mar 11:41:33 11:44:15 15° 54° (NE) 11:46:58 437.125/150
Gurwin Techsat 1B 26 Mar 11:52:14 11:53:59 12° 51° (NE) 11:55:44 435.225
POLYITAN 1 26 Mar 11:55:21 11:59:37 66° 258° (WSW) 12:03:54 437.675
QB50P2 26 Mar 12:00:02 12:04:14 55° 259° (W) 12:08:29 145.880/145.840
ESTCUBE 1 26 Mar 12:03:53 12:08:12 43° 98° (E) 12:12:30 437.505/2401.250
FO-29 26 Mar 12:12:54 12:18:41 22° 272° (W) 12:24:16 435.910
DUCHIFAT 1 26 Mar 12:13:11 12:17:20 51° 260° (W) 12:21:32 145.980
RS-15 26 Mar 12:18:48 12:29:30 40° 107° (ESE) 12:40:29 29.354- 29.394
50 SAT 26 Mar 12:30:34 12:32:33 14° 91° (E) 12:34:34 437.505
BUGSAT 1 26 Mar 12:31:25 12:35:39 89° 103° (ESE) 12:39:57 437.445
SPROUT 26 Mar 12:31:52 12:35:23 24° 93° (E) 12:38:53 437.525
NO-84 26 Mar 12:36:03 12:38:55 38° 22° (NNE) 12:41:58 435.350 FM
DX 1 26 Mar 12:58:21 13:01:47 22° 93° (E) 13:05:12 434.975-435.025
NANOSAT C BR1 26 Mar 13:00:41 13:03:30 17° 269° (W) 13:06:21 145.865
LO-87 26 Mar 13:04:17 13:07:02 20° 295° (WNW) 13:09:46 145.935 - 145.965
EO-79 26 Mar 13:05:27 13:07:50 14° 271° (W) 13:10:13 145.935-145.965
Oscar 19 26 Mar 13:17:41 13:22:48 82° 73° (ENE) 13:27:58 437.125/150
VELOX 1 26 Mar 13:18:49 13:23:18 79° 103° (ESE) 13:27:47 145.980
AO-7 26 Mar 13:26:09 13:32:42 27° 48° (NE) 13:39:15 .
PCSat 26 Mar 13:26:25 13:29:12 14° 339° (NNW) 13:32:00 145.827
ITAMSAT 1 26 Mar 13:27:14 13:29:59 15° 53° (NE) 13:32:44 435.822/435.867
Gurwin Techsat 1B 26 Mar 13:27:40 13:32:54 61° 70° (ENE) 13:38:10 435.225
UKube-1 26 Mar 13:39:06 13:43:11 39° 98° (E) 13:47:15 .
ESTCUBE 1 26 Mar 13:41:10 13:44:47 24° 297° (WNW) 13:48:24 437.505/2401.250
50 SAT 26 Mar 14:02:30 14:05:50 43° 289° (WNW) 14:09:11 437.505
SPROUT 26 Mar 14:07:26 14:11:26 38° 291° (WNW) 14:15:23 437.525
BUGSAT 1 26 Mar 14:11:08 14:11:39 10° 274° (W) 14:12:11 437.445
NO-84 26 Mar 14:13:30 14:16:29 39° 219° (SW) 14:19:42 435.350 FM
SO-50 26 Mar 14:21:35 14:24:32 17° 112° (ESE) 14:27:28 436.795
RS-15 26 Mar 14:29:02 14:41:11 76° 312° (NW) 14:53:40 29.354- 29.394
DX 1 26 Mar 14:33:59 14:38:10 44° 291° (WNW) 14:42:20 434.975-435.025
VELOX 1 26 Mar 14:56:42 14:59:11 15° 302° (WNW) 15:01:40 145.980
Oscar 19 26 Mar 14:59:57 15:02:46 15° 272° (W) 15:05:38 437.125/150
ITAMSAT 1 26 Mar 15:03:24 15:08:38 79° 73° (ENE) 15:13:53 435.822/435.867
Gurwin Techsat 1B 26 Mar 15:09:15 15:13:15 21° 269° (W) 15:17:18 435.225
BEESAT 26 Mar 15:09:22 15:13:31 29° 95° (E) 15:17:38 436.000
PCSat 26 Mar 15:14:21 15:15:11 10° 6° (N) 15:16:01 145.827
UKube-1 26 Mar 15:15:29 15:19:03 25° 296° (WNW) 15:22:35 .
AO-7 26 Mar 15:16:11 15:24:32 89° 70° (ENE) 15:32:54 .
ITUPSAT 1 26 Mar 15:25:05 15:29:34 39° 98° (E) 15:34:01 437.325
MOZHAYETS 4 26 Mar 15:30:40 15:34:08 21° 92° (E) 15:37:34
SO-50 26 Mar 15:59:49 16:04:28 76° 309° (NW) 16:09:04 436.795
CUBESAT XI-V 26 Mar 16:22:36 16:24:50 13° 87° (E) 16:27:03 437.345
DOVE 4 26 Mar 16:23:31 16:26:09 15° 55° (NE) 16:28:52 437.250
RS-15 26 Mar 16:44:41 16:56:03 40° 343° (NNW) 17:07:28 29.354- 29.394
ITAMSAT 1 26 Mar 16:45:32 16:48:43 16° 271° (W) 16:51:54 435.822/435.867
BEESAT 26 Mar 16:46:58 16:51:22 38° 294° (WNW) 16:55:44 436.000
KKS-1 26 Mar 16:51:14 16:55:11 29° 95° (E) 16:59:05 437.445
CUTE-I 26 Mar 16:51:41 16:55:42 22° 58° (ENE) 16:59:44 437.470
PCSat 26 Mar 16:56:50 17:00:51 20° 32° (NNE) 17:04:50 145.827
O/OREOS (USA 219) 26 Mar 17:00:35 17:04:46 37° 107° (ESE) 17:08:59 437.305
ITUPSAT 1 26 Mar 17:03:11 17:07:16 29° 296° (WNW) 17:11:20 437.325
XW-2F 26 Mar 17:05:04 17:07:41 18° 64° (ENE) 17:10:18 145.980 - 146.000
LilacSat-2 26 Mar 17:05:35 17:08:23 20° 65° (ENE) 17:11:12 437.200
MOZHAYETS 4 26 Mar 17:07:09 17:11:33 48° 290° (WNW) 17:15:55
AO-7 26 Mar 17:12:10 17:18:22 23° 270° (W) 17:24:36 .
STARS 26 Mar 17:28:24 17:32:23 31° 96° (E) 17:36:20 437.465
XW-2D 26 Mar 17:29:48 17:33:15 33° 69° (ENE) 17:36:42 145.860 - 145.880
NUDT-PHONESAT 26 Mar 17:30:49 17:34:02 27° 68° (ENE) 17:37:14 437.300
YUBILEINY 26 Mar 17:33:43 17:41:01 28° 61° (ENE) 17:48:15 435.215
XW-2B 26 Mar 17:35:38 17:39:10 37° 70° (ENE) 17:42:42 145.730 - 145.750
KAITUO 1B 26 Mar 17:37:30 17:40:51 32° 69° (ENE) 17:44:14 145.475/437.950
SO-50 26 Mar 17:42:21 17:45:40 19° 331° (NNW) 17:48:58 436.795
HO-68 26 Mar 17:42:37 17:48:05 25° 52° (NE) 17:53:34 435.675
XW-2C 26 Mar 17:45:37 17:49:18 49° 72° (ENE) 17:53:00 145.795 - 145.815
CUBESAT XI-V 26 Mar 17:58:07 18:02:48 80° 284° (WNW) 18:07:27 437.345
DOVE 4 26 Mar 17:58:18 18:03:01 88° 76° (ENE) 18:08:06 437.250
CUTE 1.7 + AOD 2 26 Mar 17:59:15 18:00:51 12° 58° (ENE) 18:02:28 437.475
KKS-1 26 Mar 18:27:42 18:31:46 34° 293° (WNW) 18:35:48 437.445
CUTE-I 26 Mar 18:29:56 18:35:16 68° 257° (WSW) 18:40:40 437.470
XW-2F 26 Mar 18:37:57 18:41:33 42° 261° (W) 18:45:11 145.980 - 146.000
LilacSat-2 26 Mar 18:38:51 18:42:26 39° 262° (W) 18:46:03 437.200
PCSat 26 Mar 18:39:42 18:45:10 75° 53° (NE) 18:50:36 145.827
O/OREOS (USA 219) 26 Mar 18:40:14 18:44:15 30° 307° (NW) 18:48:18 437.305
UWE-3 26 Mar 18:41:34 18:43:17 12° 56° (ENE) 18:44:59 435.000/436.395/437.385
RS-15 26 Mar 19:01:08 19:12:35 40° 17° (NNE) 19:23:47 29.354- 29.394
XW-2D 26 Mar 19:04:34 19:07:31 21° 267° (W) 19:10:30 145.860 - 145.880
NUDT-PHONESAT 26 Mar 19:04:47 19:07:56 25° 265° (W) 19:11:07 437.300
STARS 26 Mar 19:04:47 19:08:42 31° 295° (WNW) 19:12:35 437.465
XW-2B 26 Mar 19:10:43 19:13:30 19° 268° (W) 19:16:18 145.730 - 145.750
CUBEBUG 2 26 Mar 19:11:40 19:15:53 32° 67° (ENE) 19:20:03 437.445
AAUSAT CUBESAT 2 26 Mar 19:11:55 19:15:01 21° 64° (ENE) 19:18:07 437.432
KAITUO 1B 26 Mar 19:12:01 19:14:57 22° 266° (W) 19:17:54 145.475/437.950
Oscar 11 26 Mar 19:16:22 19:17:42 11° 57° (ENE) 19:19:02 .
XW-2A 26 Mar 19:20:04 19:23:31 87° 256° (WSW) 19:27:00 145.665 - 145.685
XW-2C 26 Mar 19:21:33 19:23:47 15° 270° (W) 19:26:02 145.795 - 145.815
ZACube-1 26 Mar 19:21:37 19:24:28 17° 60° (ENE) 19:27:18 437.345
SEEDS 26 Mar 19:25:35 19:29:39 53° 72° (ENE) 19:33:42 437.485
SO-50 26 Mar 19:27:41 19:27:56 10° 356° (N) 19:28:12 436.795
HO-68 26 Mar 19:27:51 19:35:02 86° 253° (WSW) 19:42:15 435.675
YUBILEINY 26 Mar 19:30:05 19:38:47 77° 265° (W) 19:47:28 435.215
M-CUBED/EXP-1 PRIME 26 Mar 19:30:08 19:34:44 68° 108° (ESE) 19:39:23 437.505
CUTE 1.7 + AOD 2 26 Mar 19:31:50 19:36:03 88° 267° (W) 19:40:17 437.475
CUBESAT XI-V 26 Mar 19:37:34 19:39:24 12° 304° (NW) 19:41:15 437.345
DOVE 4 26 Mar 19:39:25 19:41:31 13° 276° (W) 19:43:40 437.250
AO-73 26 Mar 19:49:05 19:52:50 26° 65° (ENE) 19:56:32 145.935
UWE-3 26 Mar 20:14:20 20:18:59 78° 75° (ENE) 20:23:36 435.000/436.395/437.385
STRAND 1 26 Mar 20:21:13 20:26:21 70° 103° (ESE) 20:31:25 437.568
PCSat 26 Mar 20:24:09 20:28:00 20° 253° (WSW) 20:31:49 145.827
DELFI C3 26 Mar 20:33:30 20:36:17 19° 63° (ENE) 20:39:05 145.870
AAUSAT CUBESAT 2 26 Mar 20:46:20 20:50:14 42° 262° (W) 20:54:09 437.432
CUBEBUG 2 26 Mar 20:48:05 20:52:26 35° 264° (W) 20:56:46 437.445
Oscar 11 26 Mar 20:48:48 20:53:07 82° 76° (ENE) 20:57:28 .
ZACube-1 26 Mar 20:55:44 21:00:16 69° 258° (WSW) 21:04:45 437.345
SEEDS 26 Mar 21:03:02 21:05:40 16° 270° (W) 21:08:19 437.485
M-CUBED/EXP-1 PRIME 26 Mar 21:05:27 21:08:43 20° 305° (NW) 21:12:03 437.505
SO-50 26 Mar 21:07:58 21:10:24 14° 21° (NNE) 21:12:50 436.795
ISS 26 Mar 21:08:08 21:10:48 23° 141° (SE) 21:13:29 437.550
Tancredo 1 26 Mar 21:08:55 21:11:35 25° 142° (SE) 21:14:17 437.200
RS-15 26 Mar 21:15:00 21:27:27 75° 47° (NE) 21:39:23 29.354- 29.394
HO-68 26 Mar 21:19:06 21:23:47 18° 273° (W) 21:28:29 435.675
AO-73 26 Mar 21:24:40 21:28:54 39° 263° (W) 21:33:07 145.935
YUBILEINY 26 Mar 21:28:51 21:34:05 18° 287° (WNW) 21:39:19 435.215
AO-85 26 Mar 21:41:29 21:45:50 76° 127° (SE) 21:49:56 145.980
PRISM 26 Mar 21:51:44 21:55:13 25° 95° (E) 21:58:41 437.425
UWE-3 26 Mar 21:53:36 21:55:58 14° 272° (W) 21:58:19 435.000/436.395/437.385
STRAND 1 26 Mar 22:01:23 22:05:00 20° 302° (WNW) 22:08:38 437.568
DELFI C3 26 Mar 22:07:03 22:10:47 44° 261° (W) 22:14:35 145.870
LO-87 26 Mar 22:10:06 22:13:05 25° 67° (ENE) 22:16:06 145.935 - 145.965
TIGRISAT 26 Mar 22:27:47 22:31:43 30° 95° (E) 22:35:32 435.000
Oscar 11 26 Mar 22:28:27 22:29:51 11° 273° (W) 22:31:15 .
BEESAT 3 26 Mar 22:29:40 22:33:01 27° 117° (ESE) 22:36:26 437.485
UNISAT 6 26 Mar 22:37:45 22:41:58 40° 98° (E) 22:46:03 437.425
ISS 26 Mar 22:43:45 22:47:01 78° 338° (NNW) 22:50:19 437.550
Tancredo 1 26 Mar 22:44:21 22:47:30 71° 340° (NNW) 22:50:42 437.200
VELOX 1 26 Mar 22:45:17 22:47:45 15° 58° (ENE) 22:50:13 145.980
BEESAT 2 26 Mar 22:45:54 22:48:34 17° 113° (ESE) 22:51:15 435.950
SO-50 26 Mar 22:47:40 22:52:01 44° 44° (NE) 22:56:18 436.795
ESTCUBE 1 26 Mar 23:06:34 23:10:58 61° 72° (ENE) 23:15:24 437.505/2401.250
50 SAT 26 Mar 23:08:46 23:09:50 11° 60° (ENE) 23:10:53 437.505
FO-29 26 Mar 23:17:09 23:23:14 56° 99° (E) 23:28:38 435.910
AO-85 26 Mar 23:23:31 23:26:40 20° 325° (NW) 23:29:43 145.980
PRISM 26 Mar 23:26:47 23:30:34 34° 292° (WNW) 23:34:21 437.425
RS-15 26 Mar 23:28:13 23:39:07 40° 253° (WSW) 23:49:37 29.354- 29.394
SPROUT 26 Mar 23:28:26 23:32:10 29° 66° (ENE) 23:35:55 437.525
POLYITAN 1 26 Mar 23:37:41 23:40:17 16° 90° (E) 23:42:51 437.675
QB50P2 26 Mar 23:41:59 23:45:00 19° 91° (E) 23:48:00 145.880/145.840
LO-87 26 Mar 23:43:24 23:46:29 26° 265° (W) 23:49:36 145.935 - 145.965
DUCHIFAT 1 26 Mar 23:54:11 23:57:15 19° 92° (E) 00:00:16 145.980
DX 1 26 Mar 23:57:01 00:00:49 30° 65° (ENE) 00:04:39 434.975-435.025
TIGRISAT 27 Mar 00:04:26 00:08:23 32° 294° (WNW) 00:12:15 435.000
BEESAT 3 27 Mar 00:06:47 00:10:30 38° 316° (NW) 00:14:17 437.485
BUGSAT 1 27 Mar 00:12:41 00:13:06 10° 86° (E) 00:13:30 437.445
UNISAT 6 27 Mar 00:14:52 00:18:28 25° 296° (WNW) 00:22:00 437.425
VELOX 1 27 Mar 00:19:13 00:23:37 77° 256° (WSW) 00:28:05 145.980
AIST 2D 27 Mar 00:20:15 00:23:46 78° 103° (ESE) 00:27:15 435.315
ISS 27 Mar 00:20:36 00:23:45 43° 359° (N) 00:26:56 437.550
Tancredo 1 27 Mar 00:20:52 00:23:55 42° 1° (N) 00:26:59 437.200
BEESAT 2 27 Mar 00:22:00 00:25:55 59° 311° (NW) 00:29:56 435.950
SO-50 27 Mar 00:28:25 00:32:19 29° 243° (WSW) 00:36:12 436.795
UKube-1 27 Mar 00:36:39 00:40:50 52° 71° (ENE) 00:45:03 .
50 SAT 27 Mar 00:38:58 00:42:23 65° 258° (WSW) 00:45:50 437.505
NANOSAT C BR1 27 Mar 00:39:28 00:43:41 60° 102° (ESE) 00:47:50 145.865
EO-79 27 Mar 00:44:02 00:48:18 73° 103° (ESE) 00:52:30 145.935-145.965
ESTCUBE 1 27 Mar 00:45:20 00:48:11 16° 270° (W) 00:51:02 437.505/2401.250
ITUPSAT 1 27 Mar 01:01:18 01:02:48 11° 53° (NE) 01:04:17 437.325
FO-29 27 Mar 01:02:46 01:07:54 28° 302° (WNW) 01:12:36 435.910
SPROUT 27 Mar 01:04:10 01:08:01 32° 264° (W) 01:11:54 437.525
POLYITAN 1 27 Mar 01:12:16 01:16:27 58° 288° (WNW) 01:20:35 437.675
QB50P2 27 Mar 01:16:57 01:21:04 48° 289° (WNW) 01:25:08 145.880/145.840
Oscar 19 27 Mar 01:26:10 01:30:09 22° 92° (E) 01:34:07 437.125/150
O/OREOS (USA 219) 27 Mar 01:27:53 01:31:27 21° 48° (NE) 01:34:59 437.305
DUCHIFAT 1 27 Mar 01:29:07 01:33:10 46° 290° (WNW) 01:37:11 145.980
DX 1 27 Mar 01:33:04 01:36:57 32° 264° (W) 01:40:53 434.975-435.025
Gurwin Techsat 1B 27 Mar 01:41:08 01:44:44 18° 89° (E) 01:48:20 435.225
BUGSAT 1 27 Mar 01:44:51 01:49:05 87° 291° (WNW) 01:53:13 437.445
BEESAT 3 27 Mar 01:47:56 01:49:12 11° 338° (NNW) 01:50:28 437.485
Tancredo 1 27 Mar 01:57:06 02:00:18 77° 20° (NNE) 02:03:31 437.200
ISS 27 Mar 01:57:13 02:00:31 73° 20° (NNE) 02:03:49 437.550
BEESAT 2 27 Mar 02:02:19 02:04:32 14° 333° (NNW) 02:06:46 435.950
UKube-1 27 Mar 02:14:13 02:17:11 18° 268° (W) 02:20:09 .
NANOSAT C BR1 27 Mar 02:16:14 02:18:57 17° 300° (WNW) 02:21:39 145.865
BEESAT 27 Mar 02:18:52 02:23:29 50° 69° (ENE) 02:28:07 436.000
EO-79 27 Mar 02:21:12 02:23:30 14° 301° (WNW) 02:25:48 145.935-145.965
ITUPSAT 1 27 Mar 02:35:00 02:39:46 69° 72° (ENE) 02:44:33 437.325
MOZHAYETS 4 27 Mar 02:35:40 02:39:42 31° 66° (ENE) 02:43:43
Oscar 19 27 Mar 03:04:46 03:09:50 57° 290° (WNW) 03:14:53 437.125/150
O/OREOS (USA 219) 27 Mar 03:06:42 03:11:16 61° 248° (WSW) 03:15:48 437.305
ITAMSAT 1 27 Mar 03:13:23 03:17:16 21° 91° (E) 03:21:07 435.822/435.867
AO-7 27 Mar 03:14:37 03:20:56 23° 90° (E) 03:27:13 .
Gurwin Techsat 1B 27 Mar 03:19:55 03:25:15 72° 288° (WNW) 03:30:32 435.225
BUGSAT 1 27 Mar 03:22:22 03:23:45 11° 303° (WNW) 03:25:08 437.445
CUBESAT XI-V 27 Mar 03:28:57 03:32:18 20° 61° (ENE) 03:35:40 437.345
Tancredo 1 27 Mar 03:33:36 03:36:11 23° 219° (SW) 03:38:47 437.200
ISS 27 Mar 03:33:58 03:36:47 26° 217° (SW) 03:39:35 437.550
KKS-1 27 Mar 03:52:22 03:56:34 42° 69° (ENE) 04:00:49 437.445
BEESAT 27 Mar 03:57:50 04:01:32 22° 267° (W) 04:05:15 436.000
MOZHAYETS 4 27 Mar 04:12:38 04:16:48 34° 264° (W) 04:20:59
ITUPSAT 1 27 Mar 04:15:07 04:18:04 16° 270° (W) 04:21:05 437.325
STARS 27 Mar 04:28:03 04:32:15 44° 69° (ENE) 04:36:30 437.465
AO-85 27 Mar 04:29:23 04:32:47 27° 39° (NE) 04:36:12 145.980
M-CUBED/EXP-1 PRIME 27 Mar 04:46:42 04:49:21 18° 54° (NE) 04:52:11 437.505
Oscar 19 27 Mar 04:47:10 04:48:06 10° 310° (NW) 04:49:01 437.125/150
ITAMSAT 1 27 Mar 04:52:00 04:57:09 61° 290° (WNW) 05:02:14 435.822/435.867
Gurwin Techsat 1B 27 Mar 05:01:48 05:04:17 13° 308° (NW) 05:06:46 435.225
CUBESAT XI-V 27 Mar 05:04:49 05:09:19 55° 260° (W) 05:13:51 437.345
BEESAT 3 27 Mar 05:05:59 05:08:06 14° 26° (NNE) 05:10:14 437.485
AO-7 27 Mar 05:06:23 05:14:44 87° 290° (WNW) 05:23:01 .
BEESAT 2 27 Mar 05:22:29 05:23:48 11° 21° (NNE) 05:25:07 435.950
KKS-1 27 Mar 05:29:42 05:33:18 24° 266° (W) 05:36:57 437.445
DOVE 4 27 Mar 05:53:55 05:58:04 23° 90° (E) 06:02:09 437.250
STRAND 1 27 Mar 06:03:02 06:07:01 23° 60° (ENE) 06:11:00 437.568
STARS 27 Mar 06:05:20 06:08:48 22° 267° (W) 06:12:17 437.465
XW-2F 27 Mar 06:07:29 06:09:40 15° 90° (E) 06:11:51 145.980 - 146.000
LilacSat-2 27 Mar 06:09:05 06:11:35 17° 91° (E) 06:14:05 437.200
AO-85 27 Mar 06:09:35 06:13:17 41° 239° (WSW) 06:17:04 145.980
M-CUBED/EXP-1 PRIME 27 Mar 06:19:43 06:23:23 53° 254° (WSW) 06:27:24 437.505
NUDT-PHONESAT 27 Mar 06:31:32 06:34:29 22° 94° (E) 06:37:25 437.300
XW-2D 27 Mar 06:32:44 06:36:04 29° 96° (E) 06:39:22 145.860 - 145.880
ITAMSAT 1 27 Mar 06:34:03 06:35:36 11° 309° (NW) 06:37:08 435.822/435.867
XW-2B 27 Mar 06:38:36 06:42:02 33° 97° (E) 06:45:26 145.730 - 145.750
KAITUO 1B 27 Mar 06:38:59 06:42:11 27° 95° (E) 06:45:22 145.475/437.950
YUBILEINY 27 Mar 06:40:47 06:47:39 27° 79° (E) 06:54:30 435.215
BEESAT 3 27 Mar 06:42:35 06:46:34 55° 48° (NE) 06:50:31 437.485
CUTE-I 27 Mar 06:43:24 06:48:22 37° 97° (E) 06:53:17 437.470
XW-2C 27 Mar 06:48:41 06:52:18 43° 99° (E) 06:55:53 145.795 - 145.815
HO-68 27 Mar 06:53:32 06:57:21 15° 85° (E) 07:01:08 435.675
BEESAT 2 27 Mar 06:58:52 07:02:41 37° 43° (NE) 07:06:29 435.950
AO-7 27 Mar 07:00:03 07:06:30 26° 313° (NW) 07:12:57 .
NO-84 27 Mar 07:11:40 07:14:11 28° 138° (SE) 07:16:42 435.350 FM
CUTE 1.7 + AOD 2 27 Mar 07:14:43 07:16:35 13° 88° (E) 07:18:26 437.475
DOVE 4 27 Mar 07:30:51 07:36:06 59° 288° (WNW) 07:41:15 437.250
XW-2F 27 Mar 07:40:29 07:44:06 47° 288° (WNW) 07:47:41 145.980 - 146.000
STRAND 1 27 Mar 07:40:44 07:45:49 59° 259° (WSW) 07:50:55 437.568
LilacSat-2 27 Mar 07:42:30 07:46:05 42° 289° (WNW) 07:49:39 437.200
FO-29 27 Mar 07:52:32 07:54:47 12° 44° (NE) 07:57:00 435.910
UWE-3 27 Mar 08:02:34 08:04:10 12° 86° (E) 08:05:44 435.000/436.395/437.385
NUDT-PHONESAT 27 Mar 08:05:12 08:08:27 30° 292° (WNW) 08:11:41 437.300
XW-2D 27 Mar 08:07:06 08:10:10 24° 294° (WNW) 08:13:12 145.860 - 145.880
XW-2A 27 Mar 08:11:15 08:14:36 58° 101° (E) 08:17:55 145.665 - 145.685
KAITUO 1B 27 Mar 08:13:04 08:16:10 25° 293° (WNW) 08:19:13 145.475/437.950
XW-2B 27 Mar 08:13:09 08:16:05 22° 295° (WNW) 08:18:59 145.730 - 145.750
BEESAT 3 27 Mar 08:20:57 08:23:49 19° 247° (WSW) 08:26:39 437.485
CUTE-I 27 Mar 08:23:31 08:28:24 36° 295° (WNW) 08:33:14 437.470
XW-2C 27 Mar 08:23:41 08:26:13 17° 296° (WNW) 08:28:44 145.795 - 145.815
AAUSAT CUBESAT 2 27 Mar 08:24:57 08:28:15 23° 93° (E) 08:31:33 437.432
Oscar 11 27 Mar 08:34:18 08:35:57 12° 87° (E) 08:37:34 .
YUBILEINY 27 Mar 08:34:49 08:43:34 77° 281° (W) 08:52:21 435.215
CUBEBUG 2 27 Mar 08:35:07 08:39:18 39° 97° (E) 08:43:20 437.445
BEESAT 2 27 Mar 08:36:49 08:40:23 29° 243° (WSW) 08:43:54 435.950
HO-68 27 Mar 08:39:07 08:46:19 74° 105° (ESE) 08:53:29 435.675
SEEDS 27 Mar 08:41:04 08:45:15 65° 101° (ESE) 08:49:24 437.485
ZACube-1 27 Mar 08:41:28 08:44:20 17° 90° (E) 08:47:10 437.345
PRISM 27 Mar 08:44:19 08:47:51 29° 66° (ENE) 08:51:25 437.425
CUTE 1.7 + AOD 2 27 Mar 08:48:42 08:52:55 72° 285° (WNW) 08:57:07 437.475
NO-84 27 Mar 08:48:55 08:51:38 40° 337° (NNW) 08:54:25 435.350 FM
